Weather in Shaulder

Kazakhstan     42°46′29″N   68°22′17″E
temp.,
°C
wind,
m/s
gust,
m/s
humid.,
%
clouds,
%
prec.,
mm/h
press.,
hPa
HPBL,
m
19 april, mon
mon1900:00+20w342211 0.0 101735
03:00+18s2230100 0.0 101715
06:00+17s3436100 0.0 101747
09:00+19sse1234100 0.0 1017190
12:00+23sse332756 0.0 1016758
15:00+26ssw2319100 0.0 10133393
18:00+27n2417100 0.0 10113271
21:00+23ne3324100 0.0 101234
20 april, tue
tue2000:00+20ese4640100 0.0 1011123
03:00+19ssw3435100 0.0 100959
06:00+19w3334100 0.0 100942
09:00+20wnw3835100 0.0 1011301
12:00+24w3624100 0.0 10112546
15:00+25ssw4625100 0.3 10103085
18:00+20nw141449100 0.8 10111273
21:00+16nnw8971100 1.7 1011471
21 april, wed
wed2100:00+14e2380100 2.9 1011282
03:00+14wsw238185 1.2 1011322
06:00+12wnw576738 1.8 1012310
09:00+12e6566100 0.0 1015708
12:00+10ene896684 0.0 1018527
15:00+12ene995658 0.0 1020712
18:00+11ne11145353 0.0 1022655
21:00+9ne1015543 0.0 1024689
22 april, thu
thu2200:00+8ne1016540 0.0 1024660
03:00+6ne1116660 0.0 1025565
06:00+5ne1218590 0.0 1026568
09:00+7ne1218320 0.0 1027603
12:00+13ne1213280 0.0 1027932
15:00+16ne1212200 0.0 10271148
18:00+15ne1213220 0.0 10271089
21:00+12ne11182879 0.0 1028713
23 april, fri
fri2300:00+10ene1018301 0.0 1027582
03:00+9ne918343 0.0 1026512
06:00+7ne91637100 0.0 1026398
09:00+9ne111643100 0.0 1026509
12:00+16ene111227100 0.0 1025924
15:00+20ene10112137 0.0 10241116
18:00+19ene1112225 0.0 10231040
21:00+14ne1016305 0.0 1023583